Regional Weather Roundup
Issued by NWS

Home | Current Version | Previous Version | Graphics & Text | Print | Product List | Glossary On
Versions: 1 2 3 4 5 6 7 8 9 10 11 12 13 14 15 16 17 18 19 20 21 22 23 24 25 26 27 28 29 30 31 32 33 34 35 36 37 38 39 40 41 42 43 44 45 46 47 48 49 50
000
ASUS45 KCYS 040110
RWRWY

WYOMING REGIONAL WEATHER ROUNDUP
NATIONAL WEATHER SERVICE CHEYENNE WY
600 PM MST TUE MAR 03 2015

NOTE:  "FAIR" INDICATES FEW OR NO CLOUDS BELOW 12,000 FEET
WITH NO SIGNIFICANT WEATHER AND/OR OBSTRUCTIONS TO VISIBILITY.

WYZ001-040200-
YELLOWSTONE NATIONAL PARK

CITY           SKY/WX    TMP DP  RH WIND       PRES   REMARKS
LK YELLOWSTONE   N/A     11 -11  36 W9G18     29.77R WCI  -2
W YELLOWSTONE  NOT AVBL

$$
WYZ002>013-054>058-071-098>099-040200-
NORTHERN WYOMING

CITY           SKY/WX    TMP DP  RH WIND       PRES   REMARKS
JACKSON        CLEAR     18  -6  35 SW8       29.81R WCI   7
CODY           FAIR      10   0  61 SE3       29.90S
GREYBULL       FAIR      17  -2  43 W15       29.97R WCI   2
WORLAND        FAIR      16   2  54 NW7       29.95S WCI   6
SHERIDAN       FAIR       1  -7  68 SW8       29.98S WCI -13
BUFFALO        FAIR       3  -4  72 NW5       29.92S WCI  -6
GILLETTE       FAIR       6  -4  63 NW9       29.94R WCI  -8
HULETT         FAIR       9   0  66 CALM      29.94S
NEWCASTLE      FAIR      12   0  57 NW15      29.95R WCI  -4

$$
WYZ014>020-022>026-101>103-040200-
CENTRAL WYOMING

CITY           SKY/WX    TMP DP  RH WIND       PRES   REMARKS
BIG PINEY      FAIR      21   5  50 N14       29.77R WCI   8
PINEDALE       FAIR      14   5  67 NW9       29.77R WCI   2
DUBOIS         FAIR       3   0  85 S5        29.73F WCI  -6
LANDER         CLOUDY     9   2  73 E3        29.86R
RIVERTON       CLOUDY     8   1  73 E6        29.88R WCI  -2
CASPER         FAIR       2  -2  83 N7        29.88R WCI -11
DOUGLAS        CLOUDY     8   3  80 N6        29.93R WCI  -2

$$
WYZ021-027>030-104>119-040200-
SOUTHERN WYOMING

CITY           SKY/WX    TMP DP  RH WIND       PRES   REMARKS
EVANSTON       FAIR      20  13  74 W14       29.82R WCI   7
FORT BRIDGER   CLOUDY    23  22  93 W14       29.83R FOG     WCI  11
ROCK SPRINGS   FAIR       9   5  84 NE8       29.76R WCI  -3
DIXON          CLOUDY    17  12  79 CALM      29.80R
RAWLINS        LGT SNOW   9   3  77 N3        29.78R
SARATOGA       FLURRIES   9   5  85 NW6       29.77R WCI  -1
LARAMIE        LGT SNOW  11   8  88 E6        29.70S FOG     WCI   1
CHEYENNE       LGT SNOW  10   4  76 N8        29.80R WCI  -2
TORRINGTON     LGT SNOW  15   9  76 N7        29.95R WCI   5
PINE BLUFFS    CLOUDY    14   9  79 N9        29.87R WCI   2

$$



USA.gov is the U.S. government's official web portal to all federal, state and local government web resources and services.